Terug naar catalogus

FLOCK 4G 15

ActiefWetenschapSSO
NORAD 62678·PAYLOAD·🇺🇸 United States

Gelanceerd Jan 14, 2025 vanaf Vandenberg Space Force Base

Loading…

Volgende Passages (komende 24 uur)

TLE

VersSource: CelesTrak SupGP

Epoch: Sep 14, 2026, 06:45 UTC

1 62678C 25009BX  26257.28136574  .00008491  00000+0  28374-3 0  2578
2 62678  97.3966 338.8267 0004592  21.2893 247.5661 15.31056053    14

Volg FLOCK 4G 15 in realtime met AllMySat

Download on the App Store